Tamworth Airport

Airport
ICAO code: 
YSTW
IATA Code: 
TMW
Summary
ICAO Region: 
APAC
Territory: 
Location: 
Tamworth, New South Wales
Serving: 
Tamworth
Elevation: 
1334 ft
Coordinates: 
Aerial View: 
31° 4' 40.816" S, 150° 50' 44.895" E
Airport WX: 
Cumulonimbus
Metar
Observation
YSTW 050430Z AUTO 13017KT 9999 // BKN055 24/13 Q1016 RF00.0/000.0
Station
Tamworth Airport
Date/Time
2021-12-05 04:30:00
Wind direction
130°
Wind speed
17 kts
Lowest cloud amount
broken clouds
Temperature
24°C
Dew point
13°C
Humidity
50%
QNH
1016 hPa
Weather condition
n/a

A regional airport serving Tamworth, a city in the Australian state of New South Wales. It is located 10 km from the town centre.

Climatology

Humid “subtropical” climate (Köppen climate classification Cfa) - characterized by hot, humid summers and cool winters. Significant amounts of precipitation occur in all seasons in most areas. Most summer rainfall occurs during thunderstorms.

Runways

Designator Length Width Surface Rops
6/24 842 30 GRS Yes/Yes
18/36 1020 30 GRS Yes/Yes
12R/30L 1110 18 ASP Yes/Yes
12L/30R 2200 45 ASP Yes/Yes
Airport map: 
Aerial View: 

Accidents and Serious Incidents at or in the vicinity of YSTW

SKYbrary Partners:

Safety knowledge contributed by: